Weather History for Somerville, NJ

Change the Weather History Date:

Monday, April 1, 2013

  Actual Average Record
Temperature  
Mean Temperature 49 °F -  
Max Temperature 62 °F 55 °F 78 °F (1979)
Min Temperature 37 °F 33 °F 17 °F (1969)
Degree Days  
Heating Degree Days 16    
Moisture  
Dew Point 37 °F    
Average Humidity 82    
Maximum Humidity 100    
Minimum Humidity 29    
Precipitation  
Precipitation 0.00 in - - ()
Sea Level Pressure  
Sea Level Pressure 29.71 in    
Wind  
Wind Speed 2 mph (WSW)    
Max Wind Speed 16 mph    
Max Gust Speed 28 mph    
Visibility 4 miles    
Events Fog    
Averages and records for this station are not official NWS values.
T = Trace of Precipitation, MM = Missing Value Source: NWS Daily Summary

Daily Weather History Graph

Daily Weather History Graph

Search for Another Location

Airport:

Trip Planner

Search our weather history database for the weather conditions in past years. The results will help you decide how hot, cold, wet, or windy it might be!

Date:

Astronomy

Apr. 01, 2013 Rise Set
Actual Time 6:41 AM EDT 7:23 PM EDT
Civil Twilight 6:14 AM EDT 7:51 PM EDT
Nautical Twilight 5:41 AM EDT 8:23 PM EDT
Astronomical Twilight 5:08 AM EDT 8:57 PM EDT
Moon 12:30 AM EDT (4/1) 10:24 AM EDT (4/1)
Length of Visible Light 13h 36m
Length of Day
12h 41m
Waning Gibbous, 67% of the Moon is Illuminated
Apr 1
Waning Gibbous
Apr 3
Last Quarter
Apr 10
New
Apr 18
First Quarter
Apr 25
Full

Hourly Weather History & Observations

Time (EDT) Temp. Windchill Dew Point Humidity Pressure Visibility Wind Dir Wind Speed Gust Speed Precip Events Conditions
12:02 AM 44.6 °F - 44.6 °F 100% 29.68 in 4.0 mi Calm Calm - N/A   Overcast
12:53 AM 45.0 °F - 44.1 °F 97% 29.69 in 4.0 mi Calm Calm - N/A   Overcast
1:22 AM 44.6 °F - 42.8 °F 93% 29.68 in 2.5 mi Calm Calm - N/A   Mostly Cloudy
1:25 AM 42.8 °F - 42.8 °F 100% 29.68 in 0.8 mi Calm Calm - N/A   Mostly Cloudy
1:29 AM 42.8 °F - 42.8 °F 100% 29.67 in 0.2 mi Calm Calm - N/A Fog Fog
1:41 AM 41.0 °F - 41.0 °F 100% 29.68 in 0.2 mi Calm Calm - N/A Fog Fog
1:53 AM 39.9 °F 37.8 °F 39.9 °F 100% 29.69 in 0.5 mi South 3.5 mph - N/A Fog Fog
2:15 AM 42.8 °F 41.1 °F 42.8 °F 100% 29.69 in 2.0 mi SSW 3.5 mph - N/A   Overcast
2:22 AM 42.8 °F - 42.8 °F 100% 29.69 in 6.0 mi Calm Calm - N/A   Overcast
2:53 AM 44.1 °F 42.5 °F 43.0 °F 96% 29.70 in 9.0 mi Variable 3.5 mph - N/A   Overcast
3:23 AM 44.6 °F - 42.8 °F 93% 29.69 in 10.0 mi Calm Calm - N/A   Scattered Clouds
3:37 AM 42.8 °F - 42.8 °F 100% 29.69 in 1.5 mi Calm Calm - N/A   Clear
3:43 AM 42.8 °F - 41.0 °F 93% 29.69 in 0.5 mi Calm Calm - N/A Fog Fog
3:50 AM 41.0 °F - 39.2 °F 93% 29.69 in 0.2 mi Calm Calm - N/A Fog Fog
3:53 AM 41.0 °F - 39.9 °F 96% 29.70 in 0.5 mi Calm Calm - N/A Fog Fog
4:03 AM 42.8 °F - 41.0 °F 93% 29.69 in 1.5 mi Calm Calm - N/A   Partly Cloudy
4:12 AM 39.2 °F - 39.2 °F 100% 29.69 in 0.8 mi Calm Calm - N/A   Mist
4:28 AM 39.2 °F - 39.2 °F 100% 29.70 in 1.2 mi Calm Calm - N/A   Partly Cloudy
4:53 AM 41.0 °F - 39.9 °F 96% 29.71 in 1.5 mi Calm Calm - N/A   Partly Cloudy
5:11 AM 42.8 °F 41.1 °F 41.0 °F 93% 29.70 in 3.0 mi Variable 3.5 mph - N/A   Scattered Clouds
5:53 AM 39.2 °F - 39.2 °F 100% 29.70 in 1.8 mi Calm Calm - N/A   Scattered Clouds
6:04 AM 39.2 °F - 39.2 °F 100% 29.71 in 0.8 mi Calm Calm - N/A   Mist
6:16 AM 39.2 °F - 37.4 °F 93% 29.70 in 0.2 mi Calm Calm - N/A Fog Fog
6:34 AM 37.4 °F - 37.4 °F 100% 29.70 in 0.2 mi Calm Calm - N/A Fog Fog
6:53 AM 37.9 °F 35.5 °F 37.0 °F 97% 29.70 in 0.2 mi South 3.5 mph - N/A Fog Fog
7:06 AM 39.2 °F - 39.2 °F 100% 29.70 in 0.5 mi Calm Calm - N/A Fog Fog
7:11 AM 39.2 °F - 39.2 °F 100% 29.70 in 0.2 mi Calm Calm - N/A Fog Fog
7:21 AM 39.2 °F - 39.2 °F 100% 29.70 in 0.8 mi Calm Calm - N/A   Mostly Cloudy
7:32 AM 41.0 °F - 41.0 °F 100% 29.71 in 1.2 mi Calm Calm - N/A   Scattered Clouds
7:51 AM 42.8 °F 41.1 °F 42.8 °F 100% 29.70 in 1.0 mi South 3.5 mph - N/A   Mist
7:53 AM 42.8 °F 40.1 °F 42.8 °F 100% 29.70 in 1.0 mi South 4.6 mph - N/A   Mist
8:25 AM 44.6 °F 43.1 °F 44.6 °F 100% 29.70 in 2.0 mi South 3.5 mph - N/A   Overcast
8:53 AM 45.0 °F 42.6 °F 44.1 °F 97% 29.70 in 2.5 mi South 4.6 mph - N/A   Mostly Cloudy
9:07 AM 46.4 °F 44.3 °F 44.6 °F 93% 29.70 in 3.0 mi South 4.6 mph - N/A   Mostly Cloudy
9:42 AM 48.2 °F - 46.4 °F 93% 29.68 in 5.0 mi South 3.5 mph - N/A   Scattered Clouds
9:53 AM 50.0 °F - 46.0 °F 86% 29.70 in 5.0 mi Variable 4.6 mph - N/A   Clear
10:53 AM 55.0 °F - 43.0 °F 64% 29.68 in 10.0 mi Variable 5.8 mph - N/A   Clear
11:53 AM 60.1 °F - 43.0 °F 53% 29.66 in 10.0 mi West 11.5 mph 19.6 mph N/A   Clear
12:53 PM 60.1 °F - 37.0 °F 42% 29.64 in 10.0 mi West 12.7 mph 20.7 mph N/A   Mostly Cloudy
1:53 PM 61.0 °F - 39.0 °F 44% 29.64 in 10.0 mi West 13.8 mph 24.2 mph N/A   Partly Cloudy
2:53 PM 57.2 °F - 37.4 °F 48% 29.65 in 10.0 mi WNW 16.1 mph 23.0 mph N/A   Mostly Cloudy
3:53 PM 53.6 °F - 35.6 °F 51% 29.68 in 10.0 mi WNW 9.2 mph 23.0 mph N/A   Mostly Cloudy
4:53 PM 50.0 °F - 35.1 °F 57% 29.71 in 10.0 mi Variable 3.5 mph - 0.00 in   Overcast
5:53 PM 53.1 °F - 25.0 °F 34% 29.72 in 10.0 mi NW 13.8 mph 23.0 mph 0.00 in   Scattered Clouds
6:53 PM 50.0 °F - 19.4 °F 30% 29.74 in 10.0 mi WNW 10.4 mph 27.6 mph N/A   Unknown
7:53 PM 46.9 °F - 16.0 °F 29% 29.78 in 10.0 mi WNW 5.8 mph - N/A   Clear
8:53 PM 44.1 °F 37.4 °F 16.0 °F 32% 29.84 in 10.0 mi NNW 13.8 mph 21.9 mph N/A   Clear
9:53 PM 41.0 °F 33.5 °F 10.9 °F 29% 29.88 in 10.0 mi NNW 13.8 mph 23.0 mph N/A   Clear
10:53 PM 39.0 °F 32.8 °F 9.0 °F 29% 29.91 in 10.0 mi NW 9.2 mph 19.6 mph N/A   Clear
11:53 PM 37.0 °F 31.6 °F 10.0 °F 33% 29.92 in 10.0 mi NNW 6.9 mph - N/A   Clear